| time (UTC) | temp F | wind direction | speed knots | gust knots | rain 1hr in | rain 24hr in | rain mn in | humidity % | barometer mb |
| 20260505014021 | 48 | 147 | 5.2 | 7.0 | 0.00 | 0.00 | 0.00 | 95 | 1016.0 |
| 20260505013019 | 48 | 140 | 3.5 | 4.3 | 0.00 | 0.00 | 0.00 | 95 | 1016.1 |
| 20260505012018 | 47 | 126 | 2.6 | 3.5 | 0.00 | 0.00 | 0.00 | 95 | 1016.2 |
| 20260505011017 | 47 | 136 | 2.6 | 4.3 | 0.00 | 0.00 | 0.00 | 95 | 1016.3 |
| 20260505010116 | 47 | 129 | 2.6 | 3.5 | 0.00 | 0.00 | 0.00 | 95 | 1016.4 |
| 20260505005115 | 47 | 128 | 3.5 | 4.3 | 0.00 | 0.00 | 0.00 | 95 | 1016.6 |
| 20260505004133 | 48 | 120 | 4.3 | 5.2 | 0.00 | 0.00 | 0.00 | 95 | 1016.7 |
| 20260505003113 | 47 | 141 | 3.5 | 5.2 | 0.00 | 0.00 | 0.00 | 95 | 1016.9 |
| 20260505002111 | 48 | 135 | 3.5 | 4.3 | 0.00 | 0.00 | 0.00 | 94 | 1017.0 |
| 20260505001110 | 48 | 143 | 3.5 | 4.3 | 0.00 | 0.00 | 0.00 | 94 | 1017.2 |
| 20260505000109 | 48 | 142 | 2.6 | 3.5 | 0.00 | 0.00 | 0.00 | 95 | 1017.1 |
| 20260504235107 | 48 | 117 | 3.5 | 4.3 | 0.00 | 0.00 | 0.00 | 95 | 1017.2 |
| 20260504234106 | 48 | 147 | 3.5 | 4.3 | 0.00 | 0.00 | 0.00 | 94 | 1017.4 |
| 20260504233106 | 48 | 149 | 4.3 | 5.2 | 0.00 | 0.00 | 0.00 | 94 | 1017.4 |
| 20260504232104 | 48 | 146 | 4.3 | 5.2 | 0.00 | 0.00 | 0.00 | 94 | 1017.6 |
| 20260504231103 | 48 | 154 | 4.3 | 5.2 | 0.00 | 0.00 | 0.00 | 94 | 1017.8 |
| 20260504225120 | 49 | 138 | 4.3 | 5.2 | 0.00 | 0.00 | 0.00 | 94 | 1017.7 |
| 20260504224120 | 49 | 136 | 3.5 | 5.2 | 0.00 | 0.00 | 0.00 | 94 | 1017.7 |
| 20260504223058 | 49 | 144 | 4.3 | 5.2 | 0.00 | 0.00 | 0.00 | 95 | 1017.9 |
| 20260504222117 | 49 | 124 | 3.5 | 4.3 | 0.00 | 0.00 | 0.00 | 95 | 1017.9 |
| 20260504221057 | 49 | 121 | 2.6 | 3.5 | 0.00 | 0.00 | 0.00 | 94 | 1018.0 |
| 20260504220055 | 49 | 101 | 3.5 | 4.3 | 0.00 | 0.00 | 0.00 | 94 | 1018.1 |
| 20260504215053 | 50 | 114 | 2.6 | 4.3 | 0.00 | 0.00 | 0.00 | 93 | 1018.0 |
| 20260504214112 | 50 | 139 | 3.5 | 4.3 | 0.00 | 0.00 | 0.00 | 93 | 1018.0 |
| 20260504213051 | 51 | 130 | 2.6 | 3.5 | 0.00 | 0.00 | 0.00 | 92 | 1018.2 |
| 20260504212050 | 51 | 158 | 2.6 | 3.5 | 0.00 | 0.00 | 0.00 | 91 | 1018.2 |
| 20260504211049 | 51 | 157 | 1.7 | 2.6 | 0.00 | 0.00 | 0.00 | 92 | 1018.3 |
| 20260504210109 | 52 | 136 | 2.6 | 3.5 | 0.00 | 0.00 | 0.00 | 92 | 1018.6 |
| 20260504205047 | 52 | 124 | 2.6 | 3.5 | 0.00 | 0.00 | 0.00 | 91 | 1018.6 |
| 20260504204045 | 52 | 139 | 2.6 | 3.5 | 0.00 | 0.00 | 0.00 | 90 | 1018.7 |
| 20260504203044 | 53 | 124 | 1.7 | 3.5 | 0.00 | 0.00 | 0.00 | 90 | 1018.6 |
| 20260504202044 | 53 | 132 | 1.7 | 2.6 | 0.00 | 0.00 | 0.00 | 90 | 1018.8 |
| 20260504201043 | 53 | 131 | 2.6 | 3.5 | 0.00 | 0.00 | 0.00 | 90 | 1018.6 |
| 20260504200041 | 53 | 125 | 1.7 | 2.6 | 0.00 | 0.00 | 0.00 | 90 | 1018.6 |
| 20260504195040 | 53 | 134 | 0.9 | 1.7 | 0.00 | 0.00 | 0.00 | 89 | 1018.6 |
| 20260504194058 | 53 | 125 | 0.9 | 1.7 | 0.00 | 0.00 | 0.00 | 87 | 1018.6 |
| 20260504193037 | 54 | 97 | 0.9 | 1.7 | 0.00 | 0.00 | 0.00 | 87 | 1018.4 |
| 20260504192036 | 54 | 101 | 1.7 | 2.6 | 0.00 | 0.00 | 0.00 | 85 | 1018.4 |
| 20260504191035 | 54 | 125 | 1.7 | 2.6 | 0.00 | 0.00 | 0.00 | 83 | 1018.4 |
| 20260504190033 | 54 | 100 | 2.6 | 2.6 | 0.00 | 0.00 | 0.00 | 83 | 1018.4 |
| 20260504185032 | 54 | 100 | 0.9 | 1.7 | 0.00 | 0.00 | 0.00 | 84 | 1018.5 |
| 20260504184031 | 55 | 172 | 0.9 | 4.3 | 0.00 | 0.00 | 0.00 | 83 | 1018.5 |
| 20260504183051 | 55 | 97 | 1.7 | 2.6 | 0.00 | 0.00 | 0.00 | 84 | 1018.5 |
| 20260504182029 | 55 | 77 | 1.7 | 2.6 | 0.00 | 0.00 | 0.00 | 86 | 1018.6 |
| 20260504181028 | 55 | 91 | 2.6 | 3.5 | 0.00 | 0.00 | 0.00 | 84 | 1018.6 |
| 20260504180026 | 55 | 86 | 2.6 | 3.5 | 0.00 | 0.00 | 0.00 | 85 | 1018.7 |
| 20260504175045 | 55 | 36 | 0.9 | 3.5 | 0.00 | 0.00 | 0.00 | 85 | 1018.8 |
| 20260504174024 | 55 | 245 | 0.9 | 2.6 | 0.00 | 0.00 | 0.00 | 84 | 1018.9 |
| 20260504173023 | 55 | 265 | 2.6 | 6.1 | 0.00 | 0.00 | 0.00 | 84 | 1018.8 |
| 20260504172022 | 55 | 280 | 5.2 | 7.0 | 0.00 | 0.00 | 0.00 | 83 | 1018.9 |
| 20260504171042 | 56 | 243 | 3.5 | 6.1 | 0.00 | 0.00 | 0.00 | 83 | 1018.9 |
| 20260504160112 | 56 | 272 | 3.5 | 7.8 | 0.00 | 0.00 | 0.00 | 87 | 1018.9 |
| 20260504151127 | 59 | 233 | 7.0 | 12.2 | 0.00 | 0.00 | 0.00 | 78 | 1019.0 |
| 20260504150105 | 60 | 254 | 7.0 | 12.2 | 0.00 | 0.00 | 0.00 | 76 | 1018.6 |
| 20260504141100 | 68 | 337 | 4.3 | 7.8 | 0.00 | 0.00 | 0.00 | 48 | 1017.5 |
| 20260504081018 | 60 | 45 | 1.7 | 3.5 | 0.00 | 0.00 | 0.00 | 63 | 1019.7 |
| 20260504070110 | 56 | 88 | 2.6 | 3.5 | 0.00 | 0.00 | 0.00 | 75 | 1019.8 |
| 20260504045055 | 52 | 147 | 2.6 | 6.1 | 0.00 | 0.00 | 0.00 | 86 | 1019.7 |
| 20260504044053 | 52 | 145 | 5.2 | 7.0 | 0.00 | 0.00 | 0.00 | 87 | 1019.6 |
| 20260504043052 | 52 | 143 | 5.2 | 7.0 | 0.00 | 0.00 | 0.00 | 87 | 1019.8 |
| 20260504042051 | 52 | 166 | 5.2 | 7.8 | 0.00 | 0.00 | 0.00 | 87 | 1019.8 |
| 20260504041049 | 51 | 146 | 4.3 | 7.0 | 0.00 | 0.00 | 0.00 | 88 | 1019.7 |
| 20260504040048 | 52 | 160 | 4.3 | 5.2 | 0.00 | 0.00 | 0.00 | 88 | 1019.7 |
| 20260504035048 | 51 | 62 | 5.2 | 7.8 | 0.00 | 0.00 | 0.00 | 89 | 1019.8 |
| 20260504034046 | 51 | 102 | 1.7 | 3.5 | 0.00 | 0.00 | 0.00 | 88 | 1020.1 |
| 20260504033045 | 52 | 144 | 0.9 | 4.3 | 0.00 | 0.00 | 0.00 | 88 | 1020.2 |
| 20260504032044 | 52 | 159 | 3.5 | 5.2 | 0.00 | 0.00 | 0.00 | 88 | 1020.1 |
| 20260504031043 | 52 | 145 | 2.6 | 4.3 | 0.00 | 0.00 | 0.00 | 88 | 1020.2 |
| 20260504030041 | 52 | 163 | 2.6 | 3.5 | 0.00 | 0.00 | 0.00 | 88 | 1020.3 |
| 20260504025040 | 52 | 145 | 3.5 | 5.2 | 0.00 | 0.00 | 0.00 | 89 | 1020.2 |
| 20260504024059 | 52 | 113 | 3.5 | 3.5 | 0.00 | 0.00 | 0.00 | 88 | 1020.4 |
| 20260504023038 | 51 | 141 | 3.5 | 5.2 | 0.00 | 0.00 | 0.00 | 89 | 1020.3 |
| 20260504022036 | 52 | 131 | 4.3 | 5.2 | 0.00 | 0.00 | 0.00 | 89 | 1020.4 |
| 20260504021035 | 52 | 168 | 4.3 | 5.2 | 0.00 | 0.00 | 0.00 | 88 | 1020.2 |
| 20260504020034 | 52 | 159 | 3.5 | 4.3 | 0.00 | 0.00 | 0.00 | 89 | 1020.3 |
| 20260504015054 | 52 | 129 | 3.5 | 5.2 | 0.00 | 0.00 | 0.00 | 89 | 1020.3 |